Weather History for West Palm Beach, FL

Change the Weather History Date:

Saturday, May 25, 2013

  Actual Average Record
Temperature  
Mean Temperature 79 °F 80 °F  
Max Temperature 83 °F 87 °F 96 °F (1949)
Min Temperature 75 °F 73 °F 62 °F (1928)
Degree Days  
Heating Degree Days 0 0  
Month to date heating degree days 0 0  
Since 1 July heating degree days 164 233  
Cooling Degree Days 14 15  
Month to date cooling degree days 276 322  
Year to date cooling degree days 1103 1017  
Growing Degree Days 28 (Base 50)    
Moisture  
Dew Point 65 °F    
Average Humidity 69    
Maximum Humidity 87    
Minimum Humidity 51    
Precipitation  
Precipitation 0.00 in 0.20 in 1.08 in (1972)
Month to date precipitation 13.20 3.20  
Year to date precipitation 22.48 17.40  
Snow  
Snow 0.00 in - - ()
Month to date snowfall 0.0  
Since 1 July snowfall 0.0  
Snow Depth 0.00 in    
Sea Level Pressure  
Sea Level Pressure 30.12 in    
Wind  
Wind Speed 12 mph (NE)    
Max Wind Speed 20 mph    
Max Gust Speed 25 mph    
Visibility 10 miles    
Events      
T = Trace of Precipitation, MM = Missing Value Source: NWS Daily Summary

Daily Weather History Graph

Daily Weather History Graph

Search for Another Location

Airport:

Trip Planner

Search our weather history database for the weather conditions in past years. The results will help you decide how hot, cold, wet, or windy it might be!

Date:

Astronomy

May. 25, 2013 Rise Set
Actual Time 6:28 AM EDT 8:06 PM EDT
Civil Twilight 6:03 AM EDT 8:31 PM EDT
Nautical Twilight 5:32 AM EDT 9:02 PM EDT
Astronomical Twilight 5:00 AM EDT 9:35 PM EDT
Moon 8:53 PM EDT (5/25) 6:52 AM EDT (5/25)
Length of Visible Light 14h 28m
Length of Day
13h 37m
Full, 100% of the Moon is Illuminated
May 25
Full
May 31
Last Quarter
Jun 8
New
Jun 16
First Quarter
Jun 23
Full

Hourly Weather History & Observations

Time (EDT) Temp. Heat Index Dew Point Humidity Pressure Visibility Wind Dir Wind Speed Gust Speed Precip Events Conditions
12:53 AM 78.1 °F - 71.1 °F 79% 30.07 in 10.0 mi WNW 3.5 mph - N/A   Mostly Cloudy
1:53 AM 77.0 °F - 71.1 °F 82% 30.06 in 10.0 mi Calm Calm - N/A   Scattered Clouds
2:53 AM 77.0 °F - 72.0 °F 84% 30.06 in 10.0 mi North 5.8 mph - N/A   Mostly Cloudy
3:53 AM 75.9 °F - 71.1 °F 85% 30.06 in 10.0 mi Calm Calm - N/A   Mostly Cloudy
4:53 AM 77.0 °F - 72.0 °F 84% 30.05 in 10.0 mi ENE 4.6 mph - N/A   Partly Cloudy
5:53 AM 75.9 °F - 69.1 °F 79% 30.06 in 10.0 mi ENE 11.5 mph - N/A   Scattered Clouds
6:53 AM 77.0 °F - 66.0 °F 69% 30.08 in 10.0 mi ENE 8.1 mph - N/A   Scattered Clouds
7:53 AM 78.1 °F - 62.1 °F 58% 30.10 in 10.0 mi NE 11.5 mph - N/A   Scattered Clouds
8:53 AM 80.1 °F 81.2 °F 62.1 °F 54% 30.12 in 10.0 mi NE 12.7 mph - N/A   Scattered Clouds
9:53 AM 81.0 °F 82.2 °F 63.0 °F 54% 30.14 in 10.0 mi NE 17.3 mph - N/A   Partly Cloudy
10:53 AM 81.0 °F 82.5 °F 64.0 °F 56% 30.15 in 10.0 mi NE 18.4 mph 23.0 mph N/A   Scattered Clouds
11:53 AM 82.0 °F 83.1 °F 63.0 °F 52% 30.16 in 10.0 mi ENE 18.4 mph 21.9 mph N/A   Scattered Clouds
12:53 PM 82.0 °F 83.4 °F 64.0 °F 54% 30.17 in 10.0 mi ENE 16.1 mph 21.9 mph N/A   Scattered Clouds
1:53 PM 82.0 °F 83.8 °F 64.9 °F 56% 30.16 in 10.0 mi ENE 16.1 mph 20.7 mph N/A   Scattered Clouds
2:53 PM 82.9 °F 84.0 °F 63.0 °F 51% 30.14 in 10.0 mi NE 15.0 mph 21.9 mph N/A   Scattered Clouds
3:53 PM 82.0 °F 83.0 °F 62.1 °F 51% 30.14 in 10.0 mi NE 11.5 mph 21.9 mph N/A   Scattered Clouds
4:53 PM 82.0 °F 83.1 °F 63.0 °F 52% 30.12 in 10.0 mi NE 12.7 mph - N/A   Mostly Cloudy
5:53 PM 80.1 °F 81.7 °F 64.0 °F 58% 30.11 in 10.0 mi NE 17.3 mph 23.0 mph N/A   Mostly Cloudy
6:53 PM 79.0 °F - 64.9 °F 62% 30.12 in 10.0 mi NE 13.8 mph - N/A   Mostly Cloudy
7:53 PM 78.1 °F - 64.9 °F 64% 30.12 in 10.0 mi NE 12.7 mph - N/A   Mostly Cloudy
8:53 PM 77.0 °F - 64.9 °F 66% 30.14 in 10.0 mi NE 16.1 mph 23.0 mph N/A   Scattered Clouds
9:53 PM 75.9 °F - 63.0 °F 64% 30.15 in 10.0 mi NE 15.0 mph - N/A   Scattered Clouds
10:53 PM 75.9 °F - 63.0 °F 64% 30.17 in 10.0 mi ENE 12.7 mph - N/A   Scattered Clouds
11:53 PM 75.9 °F - 62.1 °F 62% 30.17 in 10.0 mi East 11.5 mph - N/A   Partly Cloudy